Simultaneous Nadir Overpasses (SNOs) Predictions

Prediction of SNOs between AQUA and GOES-15 Satellite Orbit:

Table of predicted SNOs for the next 14.0 days since TLE Epoch: 12/7/2018
Index Date Time (AQUA) AQUA Lat,Lon GOES-15 Lat,Lon Distance(km) Time Diff (sec)
1 12/09/2018 09:54:53 -0.75,-124.95 0.02,-128.63 418.72 80
2 12/09/2018 22:16:17 -0.32,-130.14 0.00,-128.53 183.03 80
3 12/11/2018 22:04:05 0.28,-127.18 -0.00,-128.54 154.98 80
4 12/12/2018 10:25:22 0.76,-132.35 -0.02,-128.66 419.44 80
5 12/13/2018 21:51:53 0.89,-124.22 -0.00,-128.56 492.73 80
6 12/14/2018 10:13:10 0.15,-129.39 -0.01,-128.67 81.86 80
7 12/16/2018 10:00:58 -0.47,-126.42 -0.01,-128.68 255.41 80
8 12/16/2018 22:22:22 -0.60,-131.62 0.03,-128.56 347.34 80
9 12/18/2018 22:10:10 0.01,-128.66 0.02,-128.56 10.64 80
10 12/20/2018 21:57:58 0.64,-125.70 0.02,-128.56 325.40 80
11 12/21/2018 10:19:14 0.46,-130.86 -0.03,-128.67 249.07 80




NCC Satellite Simultaneous Nadir Overpasses (SNOs) Prediction Service
